TimeCDT,TemperatureF,Dew PointF,Humidity,Sea Level PressureIn,VisibilityMPH,Wind Direction,Wind SpeedMPH,Gust SpeedMPH,PrecipitationIn,Events,Conditions,WindDirDegrees,DateUTC
12:15 AM,68.0,62.6,83,29.98,10.0,South,11.5,19.6,N/A,,Partly Cloudy,180,2012-10-14 05:15:00
12:35 AM,68.0,62.6,83,29.97,10.0,South,10.4,19.6,N/A,,Clear,180,2012-10-14 05:35:00
12:55 AM,68.0,62.6,83,29.97,10.0,South,15.0,23.0,N/A,,Clear,180,2012-10-14 05:55:00
1:15 AM,69.8,62.6,78,29.97,10.0,South,13.8,24.2,N/A,,Clear,190,2012-10-14 06:15:00
1:35 AM,69.8,62.6,78,29.96,10.0,South,12.7,20.7,N/A,,Clear,180,2012-10-14 06:35:00
1:55 AM,69.8,62.6,78,29.95,10.0,South,13.8,23.0,N/A,,Clear,180,2012-10-14 06:55:00
2:15 AM,68.0,62.6,83,29.95,10.0,South,8.1,-,N/A,,Clear,170,2012-10-14 07:15:00
2:35 AM,68.0,62.6,83,29.95,10.0,South,10.4,20.7,N/A,,Clear,170,2012-10-14 07:35:00
2:55 AM,68.0,62.6,83,29.95,10.0,South,13.8,19.6,N/A,,Clear,180,2012-10-14 07:55:00
3:15 AM,68.0,62.6,83,29.94,10.0,South,10.4,21.9,N/A,,Clear,190,2012-10-14 08:15:00
3:35 AM,68.0,62.6,83,29.94,10.0,South,13.8,26.5,N/A,,Clear,180,2012-10-14 08:35:00
3:55 AM,68.0,62.6,83,29.93,10.0,South,13.8,19.6,N/A,,Clear,190,2012-10-14 08:55:00
4:15 AM,68.0,62.6,83,29.95,10.0,SSW,10.4,23.0,N/A,,Partly Cloudy,200,2012-10-14 09:15:00
4:35 AM,68.0,62.6,83,29.95,10.0,SSW,8.1,18.4,N/A,,Mostly Cloudy,200,2012-10-14 09:35:00
4:55 AM,68.0,62.6,83,29.95,10.0,South,12.7,23.0,N/A,,Overcast,190,2012-10-14 09:55:00
5:15 AM,68.0,64.4,88,29.96,10.0,South,12.7,20.7,N/A,,Overcast,190,2012-10-14 10:15:00
5:35 AM,68.0,62.6,83,29.96,10.0,South,13.8,23.0,N/A,,Overcast,190,2012-10-14 10:35:00
5:55 AM,68.0,62.6,83,29.96,10.0,South,12.7,20.7,N/A,,Overcast,190,2012-10-14 10:55:00
6:15 AM,68.0,62.6,83,29.95,10.0,South,12.7,23.0,N/A,,Mostly Cloudy,180,2012-10-14 11:15:00
6:35 AM,68.0,62.6,83,29.94,10.0,South,12.7,25.3,N/A,,Mostly Cloudy,180,2012-10-14 11:35:00
6:55 AM,68.0,64.4,88,29.92,10.0,South,19.6,26.5,N/A,,Overcast,180,2012-10-14 11:55:00
7:15 AM,68.0,64.4,88,29.92,10.0,SSW,13.8,27.6,N/A,,Overcast,200,2012-10-14 12:15:00
7:35 AM,68.0,62.6,83,29.93,10.0,SSW,16.1,26.5,N/A,,Overcast,200,2012-10-14 12:35:00
7:55 AM,68.0,62.6,83,29.95,10.0,SSW,11.5,25.3,N/A,,Mostly Cloudy,200,2012-10-14 12:55:00
8:15 AM,66.2,62.6,88,29.94,7.0,South,16.1,28.8,N/A,,Mostly Cloudy,190,2012-10-14 13:15:00
8:35 AM,64.4,62.6,94,29.94,8.0,South,13.8,26.5,N/A,,Scattered Clouds,190,2012-10-14 13:35:00
8:55 AM,64.4,62.6,94,29.88,10.0,South,19.6,33.4,N/A,,Clear,180,2012-10-14 13:55:00
9:15 AM,66.2,62.6,88,29.89,10.0,South,17.3,31.1,N/A,,Partly Cloudy,170,2012-10-14 14:15:00
9:35 AM,66.2,62.6,88,29.88,7.0,South,18.4,27.6,N/A,,Clear,180,2012-10-14 14:35:00
9:55 AM,66.2,62.6,88,29.89,10.0,SSW,10.4,23.0,N/A,,Scattered Clouds,200,2012-10-14 14:55:00
10:15 AM,66.2,62.6,88,29.89,10.0,WSW,16.1,24.2,N/A,,Scattered Clouds,250,2012-10-14 15:15:00
10:35 AM,68.0,62.6,83,29.90,10.0,SW,13.8,23.0,N/A,,Mostly Cloudy,230,2012-10-14 15:35:00
10:55 AM,68.0,62.6,83,29.90,10.0,SSW,13.8,23.0,N/A,,Scattered Clouds,210,2012-10-14 15:55:00
11:15 AM,68.0,62.6,83,29.91,10.0,SSW,16.1,29.9,N/A,,Scattered Clouds,210,2012-10-14 16:15:00
11:35 AM,69.8,62.6,78,29.90,10.0,SW,19.6,27.6,N/A,,Mostly Cloudy,220,2012-10-14 16:35:00
11:55 AM,69.8,62.6,78,29.90,10.0,SSW,15.0,25.3,N/A,,Mostly Cloudy,210,2012-10-14 16:55:00
12:15 PM,69.8,60.8,73,29.90,10.0,SW,15.0,26.5,N/A,,Mostly Cloudy,220,2012-10-14 17:15:00
12:55 PM,71.6,59.0,64,29.88,10.0,SW,15.0,35.7,N/A,,Scattered Clouds,220,2012-10-14 17:55:00
1:15 PM,71.6,59.0,64,29.88,10.0,SW,18.4,31.1,N/A,,Mostly Cloudy,230,2012-10-14 18:15:00
1:35 PM,69.8,59.0,68,29.87,10.0,SW,15.0,33.4,N/A,,Overcast,230,2012-10-14 18:35:00
1:55 PM,71.6,59.0,64,29.86,10.0,SW,18.4,32.2,N/A,,Mostly Cloudy,220,2012-10-14 18:55:00
2:15 PM,71.6,59.0,64,29.85,10.0,SW,23.0,39.1,N/A,,Mostly Cloudy,230,2012-10-14 19:15:00
2:35 PM,73.4,60.8,65,29.84,10.0,SW,18.4,28.8,N/A,,Mostly Cloudy,230,2012-10-14 19:35:00
3:15 PM,73.4,59.0,61,29.83,10.0,SW,13.8,26.5,N/A,,Mostly Cloudy,220,2012-10-14 20:15:00
3:35 PM,73.4,59.0,61,29.83,10.0,SW,16.1,31.1,N/A,,Mostly Cloudy,230,2012-10-14 20:35:00
3:55 PM,73.4,59.0,61,29.84,10.0,WSW,23.0,31.1,N/A,,Overcast,240,2012-10-14 20:55:00
4:15 PM,73.4,57.2,57,29.84,10.0,WSW,21.9,32.2,N/A,,Mostly Cloudy,240,2012-10-14 21:15:00
4:35 PM,71.6,57.2,60,29.85,10.0,WSW,23.0,29.9,N/A,,Overcast,250,2012-10-14 21:35:00
4:55 PM,73.4,59.0,61,29.85,10.0,WSW,28.8,35.7,N/A,,Mostly Cloudy,250,2012-10-14 21:55:00
5:15 PM,71.6,57.2,60,29.85,10.0,WSW,18.4,27.6,N/A,,Partly Cloudy,240,2012-10-14 22:15:00
5:35 PM,71.6,57.2,60,29.85,10.0,WSW,15.0,25.3,N/A,,Mostly Cloudy,240,2012-10-14 22:35:00
5:55 PM,71.6,57.2,60,29.86,10.0,SW,15.0,20.7,N/A,,Overcast,230,2012-10-14 22:55:00
6:15 PM,71.6,57.2,60,29.86,10.0,SW,15.0,25.3,N/A,,Overcast,230,2012-10-14 23:15:00
6:35 PM,71.6,57.2,60,29.88,10.0,West,21.9,28.8,N/A,,Overcast,260,2012-10-14 23:35:00
6:55 PM,69.8,53.6,56,29.89,10.0,West,21.9,31.1,N/A,,Overcast,270,2012-10-14 23:55:00
7:15 PM,68.0,53.6,60,29.90,10.0,West,12.7,27.6,N/A,,Mostly Cloudy,270,2012-10-15 00:15:00
7:35 PM,66.2,53.6,64,29.91,10.0,West,13.8,19.6,N/A,,Partly Cloudy,270,2012-10-15 00:35:00
7:55 PM,66.2,53.6,64,29.92,10.0,West,11.5,16.1,N/A,,Clear,280,2012-10-15 00:55:00
8:15 PM,64.4,53.6,68,29.93,10.0,West,9.2,-,N/A,,Clear,280,2012-10-15 01:15:00
8:35 PM,64.4,53.6,68,29.94,10.0,WNW,8.1,-,N/A,,Clear,290,2012-10-15 01:35:00
8:55 PM,62.6,53.6,72,29.95,10.0,WNW,5.8,-,N/A,,Clear,290,2012-10-15 01:55:00
9:15 PM,60.8,53.6,77,29.95,10.0,SW,5.8,-,N/A,,Clear,230,2012-10-15 02:15:00
9:35 PM,60.8,53.6,77,29.96,10.0,WSW,5.8,-,N/A,,Clear,250,2012-10-15 02:35:00
9:55 PM,59.0,53.6,82,29.96,10.0,WSW,3.5,-,N/A,,Partly Cloudy,250,2012-10-15 02:55:00
10:15 PM,59.0,53.6,82,29.96,10.0,WSW,4.6,-,N/A,,Mostly Cloudy,240,2012-10-15 03:15:00
10:35 PM,59.0,53.6,82,29.97,10.0,WSW,4.6,-,N/A,,Mostly Cloudy,250,2012-10-15 03:35:00
10:55 PM,57.2,53.6,88,29.97,10.0,WSW,4.6,-,N/A,,Partly Cloudy,250,2012-10-15 03:55:00
11:15 PM,57.2,53.6,88,29.96,10.0,SW,3.5,-,N/A,,Clear,230,2012-10-15 04:15:00
11:35 PM,55.4,53.6,94,29.96,10.0,WSW,3.5,-,N/A,,Partly Cloudy,240,2012-10-15 04:35:00
11:55 PM,57.2,53.6,88,29.95,10.0,WSW,5.8,-,N/A,,Partly Cloudy,240,2012-10-15 04:55:00